#timestamp,LO_Frequency,Hit,StdDev 
1672671615.0,286047000.1,N
1672671615.9,286047000.1,N
1672671635.8,286047002.4,N
1672671655.6,286047001.3,N
1672671675.4,286047002.4,N
1672671695.3,286047001.5,N
1672671715.1,286047001.4,N
1672671716.0,286047001.4,N
1672671735.8,286047004.3,Y
1672671755.7,286047003.8,P
1672671775.5,286047004.0,N
1672671795.3,286047004.2,N
1672671815.2,286047005.9,Y
1672671835.0,286047002.2,P
1672671835.9,286047002.2,P
1672671855.7,286047003.8,P
1672671875.6,286047003.4,Y
1672671895.4,286047001.9,P
1672671915.2,286047002.1,P
1672671935.1,286047004.3,P
1672671936.0,286047004.3,Y
1672671955.8,286047000.3,P
1672671975.7,286047001.1,N
1672671995.5,286047000.6,N
1672672015.3,286047000.3,N
1672672035.2,286047000.3,N
1672672055.9,286047001.0,N
1672672075.7,286046998.1,N
1672672095.6,286046998.7,N
1672672115.4,286047000.0,N
1672672135.2,286046999.7,N
1672672155.0,286046999.9,N
1672672156.0,286046999.9,N
1672672175.8,286047001.0,N
1672672195.6,286047000.9,N
1672672215.5,286047000.3,N
1672672235.3,286047000.2,N
1672672255.1,286047002.0,N
1672672275.8,286047002.3,N
1672672295.7,286047001.9,N
1672672315.5,286047002.5,N
1672672335.3,286047000.1,N
1672672355.2,286047001.0,N
1672672375.0,286046999.8,N
1672672375.9,286046999.8,N
1672672395.8,286047001.6,N
1672672415.6,286047000.2,N
1672672435.4,286047001.7,N
1672672455.2,286047001.3,N
1672672475.1,286047003.2,N
1672672476.0,286047003.2,N
1672672495.8,286047001.7,N
1672672515.7,286047004.1,Y
1672672535.5,286047002.1,P
1672672555.3,286047001.9,N
1672672575.2,286047004.4,P
1672672595.9,286047002.1,N
1672672615.7,286047006.0,Y
1672672635.6,286047001.4,P
1672672655.4,286047004.4,P
1672672675.2,286047003.8,N
1672672695.1,286047002.5,N
1672672696.0,286047002.5,N
1672672715.8,286047000.7,N
1672672735.6,286047000.5,N
1672672755.5,286047001.2,N
1672672775.3,286046999.7,N
1672672795.1,286047002.2,N
1672672815.9,286047001.8,N
1672672835.7,286047004.2,Y
1672672855.5,286047000.2,P
1672672875.4,286047000.9,N
1672672895.2,286046999.7,N
1672672915.0,286047002.6,Y
1672672915.9,286047002.6,P
1672672935.8,286046999.8,N
1672672955.6,286047001.8,N
1672672975.4,286047002.6,N
1672672995.3,286047002.4,N
1672673015.1,286047001.5,N
1672673035.8,286047002.8,N
1672673055.7,286047002.8,N
1672673075.5,286047000.3,N
1672673095.3,286047000.2,N
1672673115.2,286047000.3,N
1672673135.0,286047000.7,N
1672673135.9,286047000.7,N
1672673155.7,286047000.8,N
1672673175.6,286047000.3,N
1672673195.4,286047002.6,N
1672673215.2,286047003.8,Y
1672673235.1,286047002.4,P
1672673236.0,286047002.4,P
1672673255.8,286047002.3,P
1672673275.6,286047000.3,N
1672673295.5,286047000.1,N
1672673315.3,286047002.8,N
1672673335.1,286047001.0,N
1672673355.9,286047000.3,N
1672673375.7,286046999.7,N
1672673395.5,286047002.7,N
1672673415.4,286047001.8,N
1672673435.2,286047001.7,N
1672673455.0,286047003.8,Y
1672673456.0,286047003.8,P
1672673475.8,286047001.5,N
1672673495.6,286047003.4,P
1672673515.5,286047005.3,Y
1672673535.3,286047002.2,P
1672673555.1,286047002.5,P
1672673575.9,286047002.3,P
1672673595.7,286047001.8,Y
1672673615.5,286047000.0,P
1672673635.4,286047001.1,N
1672673655.2,286047000.8,N
1672673675.0,286047000.4,N
1672673675.9,286047000.4,N
1672673695.8,286046998.5,N
1672673715.6,286046999.5,N
1672673735.4,286047001.0,N
1672673755.3,286046998.5,N
1672673775.1,286047000.6,N
1672673776.0,286047000.6,N
1672673795.8,286046998.1,N
1672673815.7,286047000.9,N
1672673835.5,286046999.3,N
1672673855.3,286047001.2,N
1672673875.2,286047000.8,N
1672673895.9,286046998.1,N
1672673915.7,286046999.9,N
1672673935.6,286047004.0,Y
1672673955.4,286047001.8,P
1672673975.2,286047001.7,N
1672673995.1,286046999.8,N
1672673996.0,286046999.8,N
1672674015.8,286047001.9,N
1672674035.6,286047001.7,N
1672674055.5,286047001.6,N
1672674075.3,286047003.7,Y
1672674095.1,286047003.9,P
1672674115.9,286047003.5,N
1672674135.7,286047003.4,N
1672674155.5,286047005.4,Y
1672674175.4,286047001.5,P
1672674195.2,286047001.3,N
1672674215.0,286047001.6,N
1672674215.9,286047001.6,N
1672674235.8,286047002.7,Y
1672674255.6,286047000.9,P
1672674275.4,286047001.2,N
1672674295.3,286046999.4,N
1672674315.1,286047000.6,N
1672674335.8,286046998.4,N
1672674355.7,286047000.6,N
1672674375.5,286046998.6,N
1672674395.3,286046998.3,N
1672674415.2,286047000.3,N
1672674435.0,286046998.3,N
1672674435.9,286046998.3,N
1672674455.7,286046998.9,N
1672674475.6,286046999.1,N
1672674495.4,286046999.4,N
1672674515.2,286046996.5,Y
1672674535.1,286046999.2,P
1672674536.0,286046999.2,P
1672674555.8,286046999.5,N
1672674575.7,286046996.7,Y
1672674595.5,286046998.6,P
1672674615.3,286046998.9,N
1672674635.1,286046999.5,N
1672674655.9,286046998.9,Y
1672674675.7,286046998.4,P
1672674695.6,286046998.1,P
1672674715.4,286046999.5,N
1672674735.2,286046999.0,N
1672674755.1,286046999.4,N
1672674756.0,286046999.4,N
1672674775.8,286046998.7,N
1672674795.6,286046999.0,N
1672674815.5,286046998.2,Y
1672674835.3,286047000.6,P
1672674855.1,286047000.4,N
1672674875.9,286047001.1,N
1672674895.7,286047000.8,N
1672674915.5,286046999.7,N
1672674935.4,286046998.1,N
1672674955.2,286046998.1,N
1672674975.0,286046998.3,N
1672674975.9,286046998.3,N
1672674995.8,286046996.6,N
1672675015.6,286046998.6,N
1672675035.4,286046998.6,N
1672675055.3,286046998.6,N
1672675075.1,286047000.7,N
1672675076.0,286047000.7,N
1672675095.8,286047000.9,N
1672675115.7,286046998.5,N
1672675135.5,286047000.7,N
1672675155.3,286047000.9,N
1672675175.2,286047001.0,N
1672675195.9,286047001.1,N
